Location: Wildlife_Club
(35.6000°N, 81.4330°W)
Time: 00:03:54
(UTC-04:00)

A-11 Canister half - Pass Details

Date: 25 June 2019
Orbit: 1514 x 1686 km, 47.2° (Epoch: 12 October)

Event Time Altitude Azimuth Distance (km) Brightness Sun altitude
Rises 12:13:36 0° 259° (W) 4,917 11.5 69.7°
Reaches altitude 10° 12:16:56 10° 264° (W) 3,916 11.1 70.3°
Maximum altitude 12:26:40 53° 340° (NNW) 1,937 10.2 71.9°
Drops below altitude 10° 12:36:07 10° 56° (NE) 3,795 11.3 73.3°
Sets 12:39:18 0° 61° (ENE) 4,757 11.6 73.8°
